Stations météo

Publicité
Grenoble/St.Geoirs, France (7486): Température de l'air & dewpoint: 23.01.2020 18:00:00 - 29.01.2020 18:00:00 (CET)Grenoble/St.Geoirs, France (7486): Température de l'air 5cm: 23.01.2020 18:00:00 - 29.01.2020 18:00:00 (CET)Grenoble/St.Geoirs, France (7486): Température de l'air -20cm & Température de l'air -100cm: 23.01.2020 18:00:00 - 29.01.2020 18:00:00 (CET)Grenoble/St.Geoirs, France (7486): Vitesse du vent & gusts: 23.01.2020 18:00:00 - 29.01.2020 18:00:00 (CET)Grenoble/St.Geoirs, France (7486): Direction du vent: 23.01.2020 18:00:00 - 29.01.2020 18:00:00 (CET)Grenoble/St.Geoirs, France (7486): reduced air pressure: 23.01.2020 18:00:00 - 29.01.2020 18:00:00 (CET)Grenoble/St.Geoirs, France (7486): visibility: 23.01.2020 18:00:00 - 29.01.2020 18:00:00 (CET)Grenoble/St.Geoirs, France (7486): Ensoleillement: 23.01.2020 18:00:00 - 29.01.2020 18:00:00 (CET)Grenoble/St.Geoirs, France (7486): Quantités de précipitations: 23.01.2020 18:00:00 - 29.01.2020 18:00:00 (CET)
Date & Time tt [°C] td [°C] tt 5cm [°C] tt -20cm [°C] tt -100cm [°C] ff [km/h] ff [knt] fx [km/h] fx [knt] dd ppp [hPa] vv [km] sd [min] rr [mm]
29.01.2020 18:00:00 - - - - - - - - - - - - - -
29.01.2020 17:00:00 7,9 5,4 7,5 6,1 7,2 8 5 15 8 E 1020,3 55 10 0,0
29.01.2020 16:00:00 8,8 4,6 8,7 6,0 7,2 12 6 15 8 ENE 1019,9 52 12 0,0
29.01.2020 15:00:00 8,9 4,3 10,0 6,0 7,2 9 5 18 10 NE 1019,8 27 23 0,0
29.01.2020 14:00:00 8,3 5,8 9,4 5,9 7,2 11 6 16 9 ENE 1019,9 50 1 0,0
29.01.2020 13:00:00 7,7 5,5 7,4 5,9 7,2 13 7 18 10 ENE 1020,1 34 4 0,2
29.01.2020 12:00:00 6,7 5,3 6,3 5,9 7,2 9 5 20 11 NE 1020,9 44 0 0,0
29.01.2020 11:00:00 5,8 5,1 5,3 6,0 7,2 13 7 17 9 ENE 1020,7 19 0 0,4
29.01.2020 10:00:00 5,3 4,6 4,7 5,9 7,2 11 6 15 8 ENE 1020,0 14 0 0,4
29.01.2020 09:00:00 4,9 4,3 4,3 6,0 7,2 10 5 15 8 ENE 1019,7 10 0 0,8
29.01.2020 08:00:00 4,7 4,0 3,9 6,0 7,2 10 6 15 8 ENE 1018,9 9 0 0,2
29.01.2020 07:00:00 4,5 3,6 3,9 6,0 7,2 11 6 16 9 E 1018,4 24 0 0,8
29.01.2020 06:00:00 4,7 3,4 4,3 6,0 7,2 12 6 19 11 ESE 1017,8 13 0 0,0
29.01.2020 05:00:00 4,9 3,2 3,8 6,0 7,2 14 7 18 10 ENE 1017,5 24 0 0,0
29.01.2020 04:00:00 4,8 3,0 3,9 6,0 7,1 6 3 10 5 ENE 1017,8 34 0 0,0
29.01.2020 03:00:00 5,1 2,9 4,1 6,1 7,1 6 3 9 5 E 1017,6 39 0 0,0
29.01.2020 02:00:00 6,6 2,3 4,4 6,1 7,1 8 5 20 11 NW 1016,9 33 0 0,0
29.01.2020 01:00:00 5,5 2,3 3,3 6,1 7,1 9 5 20 11 ESE 1016,3 41 0 0,0
29.01.2020 00:00:00 4,0 3,1 3,3 6,1 7,1 14 8 23 12 ENE 1016,5 17 0 0,0
28.01.2020 23:00:00 3,9 3,0 2,3 6,2 7,1 15 8 19 10 ENE 1016,7 16 0 0,0
28.01.2020 22:00:00 3,3 2,7 1,7 6,2 7,1 14 8 22 12 E 1016,7 10 0 0,0
28.01.2020 21:00:00 3,1 1,9 1,9 6,2 7,1 13 7 20 11 E 1016,6 34 0 0,0
28.01.2020 20:00:00 3,3 2,4 1,6 6,2 7,1 13 7 21 11 ENE 1016,4 42 0 0,0
28.01.2020 19:00:00 4,6 3,4 3,7 6,1 7,1 12 6 18 10 ESE 1016,8 48 0 0,6
28.01.2020 18:00:00 5,5 2,8 4,4 6,1 7,1 8 4 19 10 NNE 1016,0 15 0 0,0
28.01.2020 17:00:00 5,9 3,2 5,8 6,1 7,1 12 6 32 17 E 1014,8 52 0 0,0
28.01.2020 16:00:00 6,4 3,4 6,4 6,0 7,1 21 12 35 19 N 1014,5 42 0 0,0
28.01.2020 15:00:00 8,2 3,6 6,4 6,0 7,1 10 6 30 16 WNW 1013,9 57 0 0,0
28.01.2020 14:00:00 8,4 3,2 6,1 6,0 7,1 22 12 48 26 W 1013,3 8 0 0,6
28.01.2020 13:00:00 10,8 2,4 10,6 5,9 7,1 28 15 39 21 WSW 1012,8 49 0 0,0
28.01.2020 12:00:00 10,1 3,6 10,4 5,9 7,1 16 8 37 20 SW 1013,7 47 28 0,0
28.01.2020 11:00:00 9,6 4,0 6,9 5,9 7,0 25 13 53 29 SSW 1013,4 58 3 0,0
28.01.2020 10:00:00 9,4 3,8 8,4 5,9 7,0 27 15 56 31 SSW 1012,4 52 0 0,0
28.01.2020 09:00:00 8,6 5,2 7,4 5,9 7,1 31 17 58 31 S 1012,0 53 0 0,0
28.01.2020 08:00:00 8,4 5,5 7,6 5,8 7,0 32 17 55 30 S 1011,5 44 0 0,0
28.01.2020 07:00:00 8,6 5,5 7,7 5,8 7,0 30 16 61 33 S 1011,5 48 0 0,0
28.01.2020 06:00:00 8,4 5,7 7,7 5,8 7,0 32 18 63 34 S 1011,0 36 0 0,0
28.01.2020 05:00:00 8,9 5,3 7,7 5,8 7,0 32 17 58 32 S 1011,0 36 0 0,0
28.01.2020 04:00:00 9,6 4,6 8,6 5,8 7,0 34 18 56 31 S 1010,9 57 0 0,0
28.01.2020 03:00:00 9,4 4,4 8,3 5,8 7,0 20 11 34 18 S 1011,4 54 0 0,0
28.01.2020 02:00:00 9,1 4,1 7,2 5,8 7,0 14 8 26 14 S 1011,7 54 0 0,0
28.01.2020 01:00:00 8,3 4,3 5,1 5,8 7,0 12 6 23 12 SSW 1012,3 37 0 0,0
28.01.2020 00:00:00 7,2 4,8 6,4 5,8 7,0 6 4 12 6 NNW 1013,1 14 0 0,0
27.01.2020 23:00:00 8,0 4,8 7,2 5,8 7,0 8 5 26 14 SSE 1013,8 27 0 0,0
27.01.2020 22:00:00 7,9 5,0 6,8 5,7 7,0 6 4 24 13 WSW 1014,2 27 0 0,0
27.01.2020 21:00:00 8,0 4,9 6,3 5,7 7,0 9 5 22 12 SSW 1014,2 34 0 0,0
27.01.2020 20:00:00 7,9 5,2 5,6 5,7 7,0 11 6 23 12 SSE 1014,2 17 0 0,2
27.01.2020 19:00:00 6,4 5,0 5,6 5,6 7,0 8 4 26 14 E 1015,3 7 0 0,0
27.01.2020 18:00:00 7,1 4,9 6,4 5,6 7,0 14 8 29 15 WSW 1015,5 31 0 0,0
27.01.2020 17:00:00 7,4 4,9 7,0 5,5 7,0 16 9 37 20 W 1015,2 37 0 0,0
27.01.2020 16:00:00 8,1 4,7 7,8 5,5 7,0 17 9 29 15 WSW 1015,4 42 0 0,0
27.01.2020 15:00:00 8,2 5,0 9,0 5,4 7,0 14 7 25 13 SSW 1015,7 14 0 0,0
27.01.2020 14:00:00 8,7 4,5 8,7 5,4 7,0 5 3 17 9 SW 1016,4 13 2 0,0
27.01.2020 13:00:00 7,1 5,4 7,8 5,4 7,0 5 3 12 7 N 1017,8 23 0 0,0
27.01.2020 12:00:00 6,2 4,8 7,6 5,4 7,0 9 5 19 11 E 1018,7 10 6 0,0
27.01.2020 11:00:00 5,9 5,0 5,7 5,4 7,0 15 8 21 12 E 1019,0 10 46 0,0
27.01.2020 10:00:00 3,8 3,8 2,9 5,5 7,0 9 5 13 7 E 1019,9 11 41 0,0
27.01.2020 09:00:00 2,5 2,5 -0,3 5,5 7,0 7 4 14 8 E 1020,4 0,2 17 0,0
27.01.2020 08:00:00 1,9 1,9 0,1 5,6 7,0 7 4 19 10 ESE 1020,7 0,1 0 0,0
27.01.2020 07:00:00 3,0 3,0 1,4 5,6 7,0 14 8 19 11 E 1020,6 0,1 0 0,0
27.01.2020 06:00:00 2,7 2,7 0,0 5,6 7,0 16 9 21 11 E 1020,9 0,1 0 0,0
27.01.2020 05:00:00 1,6 1,2 0,0 5,6 6,9 11 6 19 10 ENE 1021,6 2,0 0 0,0
27.01.2020 04:00:00 1,4 0,8 -0,2 5,7 6,9 12 7 16 9 E 1021,9 1,4 0 0,0
27.01.2020 03:00:00 2,9 2,8 1,1 5,6 6,9 14 8 15 8 E 1022,1 1,0 0 0,0
27.01.2020 02:00:00 5,2 5,1 3,4 5,6 6,9 8 4 15 8 ENE 1021,8 2,5 0 0,0
27.01.2020 01:00:00 4,4 4,1 2,9 5,6 6,9 10 5 14 7 E 1022,1 2,3 0 0,0
27.01.2020 00:00:00 5,0 4,6 3,8 5,6 6,9 9 5 11 6 E 1022,1 3,7 0 0,0
26.01.2020 23:00:00 5,3 4,6 2,7 5,6 6,9 8 5 12 7 NE 1022,1 3,1 0 0,0
26.01.2020 22:00:00 6,5 5,6 5,7 5,6 6,9 10 5 14 8 NE 1021,9 5 0 0,0
26.01.2020 21:00:00 7,1 6,0 5,9 5,5 6,9 8 4 17 9 ESE 1021,6 5 0 1,0
26.01.2020 20:00:00 6,7 5,8 4,2 5,5 6,9 3 2 8 5 NW 1021,6 14 0 0,0
26.01.2020 19:00:00 6,3 5,3 4,2 5,4 6,9 5 3 14 8 E 1021,1 8 0 0,0
26.01.2020 18:00:00 6,6 4,9 5,4 5,3 6,9 11 6 19 11 ENE 1020,5 10 0 0,0
26.01.2020 17:00:00 8,9 5,5 8,2 5,2 6,9 14 8 24 13 ESE 1019,9 26 17 0,0
26.01.2020 16:00:00 11,8 5,9 13,1 5,1 6,9 6 4 31 17 ENE 1019,5 20 58 0,0
26.01.2020 15:00:00 11,8 5,6 12,5 5,1 6,9 12 7 22 12 S 1019,3 19 29 0,0
26.01.2020 14:00:00 9,4 6,1 9,8 5,0 6,9 3 2 14 8 NW 1020,1 16 1 0,0
26.01.2020 13:00:00 8,5 5,9 9,0 5,0 6,9 11 6 18 10 E 1020,5 23 0 0,0
26.01.2020 12:00:00 7,5 5,5 7,4 5,0 6,9 15 8 18 10 E 1021,3 16 0 0,0
26.01.2020 11:00:00 6,7 5,2 6,2 5,0 6,9 13 7 17 9 E 1021,3 18 0 0,0
26.01.2020 10:00:00 6,0 5,0 5,1 5,0 6,9 10 5 15 8 E 1021,1 16 0 0,0
26.01.2020 09:00:00 5,5 4,6 4,6 5,0 6,9 10 6 20 11 E 1020,9 17 0 0,4
26.01.2020 08:00:00 5,3 4,1 4,0 5,0 6,9 16 8 22 12 ENE 1020,5 15 0 0,0
26.01.2020 07:00:00 4,3 3,1 3,7 5,0 6,9 14 7 22 12 E 1020,6 12 0 0,0
26.01.2020 06:00:00 4,6 2,5 3,8 5,0 6,9 15 8 22 12 E 1020,3 10 0 0,0
26.01.2020 05:00:00 4,4 2,3 2,7 5,0 6,9 14 8 20 11 ENE 1020,5 10 0 0,0
26.01.2020 04:00:00 4,8 2,7 3,8 5,0 6,9 11 6 18 10 E 1020,6 10 0 0,0
26.01.2020 03:00:00 4,9 2,6 2,7 5,0 6,9 13 7 19 10 E 1020,9 10 0 0,0
26.01.2020 02:00:00 3,5 1,7 2,6 5,0 6,9 15 8 19 11 E 1021,2 9 0 0,0
26.01.2020 01:00:00 4,6 2,5 4,1 5,0 6,9 13 7 21 11 E 1021,2 9 0 0,0
26.01.2020 00:00:00 5,2 3,0 4,3 5,0 6,9 15 8 22 12 E 1021,4 9 0 0,0
25.01.2020 23:00:00 4,7 3,4 2,3 5,0 6,9 16 9 18 10 E 1021,6 7 0 0,0
25.01.2020 22:00:00 3,3 2,4 0,8 4,9 6,9 8 4 15 8 ENE 1021,9 6 0 0,0
25.01.2020 21:00:00 5,0 3,2 2,8 4,9 6,9 11 6 15 8 E 1021,7 6 0 0,0
25.01.2020 20:00:00 4,8 3,5 3,1 4,9 6,9 11 6 15 8 E 1021,6 6 0 0,0
25.01.2020 19:00:00 6,5 4,5 5,0 4,8 6,9 9 5 12 7 E 1021,3 7 0 0,0
25.01.2020 18:00:00 7,4 4,2 4,8 4,7 6,9 5 3 13 7 E 1020,9 7 0 0,0
25.01.2020 17:00:00 9,0 4,4 6,0 4,6 6,9 2 1 10 5 ENE 1020,5 10 0 0,0
25.01.2020 16:00:00 10,3 4,6 11,0 4,5 6,9 4 2 10 5 SSE 1020,6 20 2 0,0
25.01.2020 15:00:00 11,4 4,4 12,5 4,4 6,9 6 3 14 7 ENE 1020,9 20 51 0,0
25.01.2020 14:00:00 10,4 4,3 11,4 4,3 6,9 8 5 21 11 ENE 1021,4 19 20 0,0
25.01.2020 13:00:00 9,8 4,0 10,0 4,3 6,9 16 9 21 11 ENE 1022,2 13 25 0,0
25.01.2020 12:00:00 8,1 3,4 9,7 4,3 6,9 16 8 22 12 E 1022,8 16 24 0,0
25.01.2020 11:00:00 7,8 3,6 6,3 4,3 6,9 18 10 26 14 E 1022,9 17 7 0,0
25.01.2020 10:00:00 5,3 2,8 3,8 4,3 6,9 16 9 21 11 E 1023,3 10 8 0,0
25.01.2020 09:00:00 3,8 2,5 2,9 4,3 6,9 15 8 20 11 E 1023,4 13 0 0,0
25.01.2020 08:00:00 3,1 1,9 2,5 4,4 6,9 16 8 21 11 E 1023,3 9 0 0,0
25.01.2020 07:00:00 2,7 1,8 0,7 4,4 6,9 16 9 19 10 E 1023,1 8 0 0,0
25.01.2020 06:00:00 1,3 0,6 -0,9 4,4 6,9 14 7 18 10 E 1023,2 7 0 0,0
25.01.2020 05:00:00 1,4 -0,1 -0,8 4,4 6,9 13 7 20 11 ENE 1023,2 7 0 0,0
25.01.2020 04:00:00 0,6 -0,4 -0,5 4,5 6,9 14 8 17 9 E 1023,6 7 0 0,0
25.01.2020 03:00:00 1,7 0,4 0,9 4,5 6,9 15 8 19 10 E 1024,0 7 0 0,0
25.01.2020 02:00:00 2,0 0,7 -0,5 4,5 6,9 14 8 19 10 E 1024,1 8 0 0,0
25.01.2020 01:00:00 0,7 -0,8 -0,8 4,5 6,9 16 9 20 11 E 1024,2 8 0 0,0
25.01.2020 00:00:00 1,4 -0,2 -0,2 4,5 6,9 14 8 22 12 E 1024,0 7 0 0,0
24.01.2020 23:00:00 0,8 -0,1 -1,5 4,5 6,9 13 7 16 9 ENE 1024,4 8 0 0,0
24.01.2020 22:00:00 2,1 0,6 -0,7 4,5 6,9 9 5 15 8 ENE 1024,4 6 0 0,0
24.01.2020 21:00:00 3,1 0,7 1,6 4,4 6,9 13 7 23 13 E 1024,1 8 0 0,0
24.01.2020 20:00:00 6,2 3,4 5,1 4,3 6,9 16 8 21 11 ENE 1023,2 10 0 0,0
24.01.2020 19:00:00 6,0 3,5 5,5 4,3 6,9 13 7 18 10 E 1023,3 9 0 0,0
24.01.2020 18:00:00 6,5 3,8 5,8 4,2 6,9 10 6 13 7 ENE 1023,0 15 0 0,0
24.01.2020 17:00:00 7,1 4,1 6,5 4,1 6,9 11 6 13 7 E 1022,7 13 0 0,0
24.01.2020 16:00:00 8,0 3,5 8,1 4,0 6,9 10 5 20 11 E 1022,8 14 5 0,0
24.01.2020 15:00:00 8,7 3,3 9,7 3,9 6,9 13 7 21 11 E 1022,8 17 0 0,0
24.01.2020 14:00:00 8,1 3,0 9,0 3,9 6,9 16 9 26 14 ENE 1023,3 17 15 0,0
24.01.2020 13:00:00 7,0 2,5 8,2 3,9 6,9 21 11 26 14 E 1024,2 13 7 0,0
24.01.2020 12:00:00 6,6 2,1 7,0 3,9 7,0 18 10 28 15 E 1025,1 11 13 0,0
24.01.2020 11:00:00 5,9 1,8 4,9 3,9 7,0 18 10 30 16 E 1025,4 11 32 0,0
24.01.2020 10:00:00 4,1 1,5 2,7 3,9 7,0 16 9 27 15 ENE 1025,5 12 0 0,0
24.01.2020 09:00:00 2,6 0,7 1,5 3,9 7,0 19 10 23 12 E 1026,0 12 0 0,0
24.01.2020 08:00:00 2,0 0,2 -0,1 3,9 7,0 15 8 21 11 E 1026,0 10 0 0,0
24.01.2020 07:00:00 0,9 -0,4 0,1 3,9 7,0 15 8 24 13 E 1025,9 10 0 0,0
24.01.2020 06:00:00 2,5 0,7 0,2 3,9 7,0 18 10 23 12 E 1025,4 13 0 0,0
24.01.2020 05:00:00 1,6 -0,3 -0,8 4,0 7,0 11 6 23 12 ENE 1025,6 10 0 0,0
24.01.2020 04:00:00 2,3 0,0 1,3 4,0 7,0 13 7 27 14 ESE 1025,7 8 0 0,0
24.01.2020 03:00:00 2,7 -0,1 1,3 4,0 7,0 18 10 27 15 ENE 1026,1 9 0 0,0
24.01.2020 02:00:00 3,3 0,0 1,4 4,0 7,0 19 10 29 16 E 1026,1 9 0 0,0
24.01.2020 01:00:00 2,8 -0,5 1,3 4,0 7,0 20 11 30 16 ENE 1026,6 8 0 0,0
24.01.2020 00:00:00 2,7 -0,4 0,2 4,0 7,0 18 10 29 16 ENE 1026,9 8 0 0,0
23.01.2020 23:00:00 2,5 -0,3 1,5 4,0 7,0 24 13 33 18 E 1027,0 7 0 0,0
23.01.2020 22:00:00 2,8 0,0 0,8 4,0 7,0 19 11 30 16 ENE 1027,4 7 0 0,0
23.01.2020 21:00:00 1,8 -0,5 0,2 3,9 7,0 18 10 23 13 E 1027,5 8 0 0,0
23.01.2020 20:00:00 2,5 -0,3 0,0 3,9 7,0 18 10 23 12 ENE 1027,3 6 0 0,0
23.01.2020 19:00:00 2,1 -0,5 0,8 3,8 7,1 16 8 24 13 E 1027,0 7 0 0,0
23.01.2020 18:00:00 3,0 0,2 1,6 3,7 7,0 15 8 19 11 E 1026,4 7 0 0,0

tt = Température de l'air
td = dewpoint
tt 5cm = Température de l'air 5cm
tt -20cm = Température de l'air -20cm
tt -100cm = Température de l'air -100cm
ff = Vitesse du vent
fx = gusts
dd = Direction du vent
ppp = reduced air pressure
vv = visibility
sd = Ensoleillement
rr = Quantités de précipitations

stations d'obs. à proximité